Year,Month,Day,Hour,Minute,Value (Times are PST for temperature in C)
2016,06,30,00,00,16.30
2016,06,30,00,01,16.30
2016,06,30,00,02,16.30
2016,06,30,00,03,16.30
2016,06,30,00,04,16.40
2016,06,30,00,05,16.40
2016,06,30,00,06,16.50
2016,06,30,00,07,16.50
2016,06,30,00,08,16.60
2016,06,30,00,09,16.60
2016,06,30,00,10,16.70
2016,06,30,00,11,16.70
2016,06,30,00,12,16.70
2016,06,30,00,13,16.70
2016,06,30,00,14,16.70
2016,06,30,00,15,16.70
2016,06,30,00,16,16.70
2016,06,30,00,17,16.70
2016,06,30,00,18,16.70
2016,06,30,00,19,16.70
2016,06,30,00,20,16.60
2016,06,30,00,21,16.60
2016,06,30,00,22,16.60
2016,06,30,00,23,16.60
2016,06,30,00,24,16.60
2016,06,30,00,25,16.60
2016,06,30,00,26,16.60
2016,06,30,00,27,16.50
2016,06,30,00,28,16.50
2016,06,30,00,29,16.40
2016,06,30,00,30,16.40
2016,06,30,00,31,16.30
2016,06,30,00,32,16.30
2016,06,30,00,33,16.30
2016,06,30,00,34,16.30
2016,06,30,00,35,16.30
2016,06,30,00,36,16.30
2016,06,30,00,37,16.30
2016,06,30,00,38,16.30
2016,06,30,00,39,16.30
2016,06,30,00,40,16.30
2016,06,30,00,41,16.30
2016,06,30,00,42,16.30
2016,06,30,00,43,16.20
2016,06,30,00,44,16.20
2016,06,30,00,45,16.20
2016,06,30,00,46,16.20
2016,06,30,00,47,16.20
2016,06,30,00,48,16.20
2016,06,30,00,49,16.20
2016,06,30,00,50,16.20
2016,06,30,00,51,16.20
2016,06,30,00,52,16.20
2016,06,30,00,53,16.20
2016,06,30,00,54,16.10
2016,06,30,00,55,16.10
2016,06,30,00,56,16.10
2016,06,30,00,57,16.10
2016,06,30,00,58,16.10
2016,06,30,00,59,16.10
2016,06,30,01,00,16.00
2016,06,30,01,01,16.00
2016,06,30,01,02,16.00
2016,06,30,01,03,16.00
2016,06,30,01,04,15.90
2016,06,30,01,05,15.90
2016,06,30,01,06,15.90
2016,06,30,01,07,15.90
2016,06,30,01,08,15.90
2016,06,30,01,09,15.90
2016,06,30,01,10,15.90
2016,06,30,01,11,15.90
2016,06,30,01,12,15.90
2016,06,30,01,13,15.90
2016,06,30,01,14,15.80
2016,06,30,01,15,15.80
2016,06,30,01,16,15.80
2016,06,30,01,17,15.80
2016,06,30,01,18,15.80
2016,06,30,01,19,15.80
2016,06,30,01,20,15.80
2016,06,30,01,21,15.80
2016,06,30,01,22,15.70
2016,06,30,01,23,15.70
2016,06,30,01,24,15.70
2016,06,30,01,25,15.60
2016,06,30,01,26,15.60
2016,06,30,01,27,15.60
2016,06,30,01,28,15.60
2016,06,30,01,29,15.50
2016,06,30,01,30,15.50
2016,06,30,01,31,15.50
2016,06,30,01,32,15.40
2016,06,30,01,33,15.40
2016,06,30,01,34,15.40
2016,06,30,01,35,15.40
2016,06,30,01,36,15.40
2016,06,30,01,37,15.40
2016,06,30,01,38,15.30
2016,06,30,01,39,15.30
2016,06,30,01,40,15.30
2016,06,30,01,41,15.30
2016,06,30,01,42,15.30
2016,06,30,01,43,15.30
2016,06,30,01,44,15.30
2016,06,30,01,45,15.30
2016,06,30,01,46,15.20
2016,06,30,01,47,15.20
2016,06,30,01,48,15.20
2016,06,30,01,49,15.20
2016,06,30,01,50,15.20
2016,06,30,01,51,15.20
2016,06,30,01,52,15.20
2016,06,30,01,53,15.20
2016,06,30,01,54,15.20
2016,06,30,01,55,15.10
2016,06,30,01,56,15.10
2016,06,30,01,57,15.10
2016,06,30,01,58,15.10
2016,06,30,01,59,15.10
2016,06,30,02,00,15.10
2016,06,30,02,01,15.00
2016,06,30,02,02,15.00
2016,06,30,02,03,15.00
2016,06,30,02,04,14.90
2016,06,30,02,05,14.90
2016,06,30,02,06,14.90
2016,06,30,02,07,14.90
2016,06,30,02,08,14.90
2016,06,30,02,09,14.90
2016,06,30,02,10,14.90
2016,06,30,02,11,14.90
2016,06,30,02,12,14.90
2016,06,30,02,13,14.90
2016,06,30,02,14,14.90
2016,06,30,02,15,14.90
2016,06,30,02,16,14.90
2016,06,30,02,17,14.90
2016,06,30,02,18,14.90
2016,06,30,02,19,14.90
2016,06,30,02,20,14.90
2016,06,30,02,21,14.90
2016,06,30,02,22,14.90
2016,06,30,02,23,14.90
2016,06,30,02,24,14.90
2016,06,30,02,25,14.90
2016,06,30,02,26,14.80
2016,06,30,02,27,14.80
2016,06,30,02,28,14.80
2016,06,30,02,29,14.80
2016,06,30,02,30,14.80
2016,06,30,02,31,14.80
2016,06,30,02,32,14.80
2016,06,30,02,33,14.80
2016,06,30,02,34,14.80
2016,06,30,02,35,14.80
2016,06,30,02,36,14.80
2016,06,30,02,37,14.80
2016,06,30,02,38,14.80
2016,06,30,02,39,14.70
2016,06,30,02,40,14.70
2016,06,30,02,41,14.70
2016,06,30,02,42,14.70
2016,06,30,02,43,14.70
2016,06,30,02,44,14.70
2016,06,30,02,45,14.70
2016,06,30,02,46,14.70
2016,06,30,02,47,14.70
2016,06,30,02,48,14.70
2016,06,30,02,49,14.70
2016,06,30,02,50,14.70
2016,06,30,02,51,14.70
2016,06,30,02,52,14.70
2016,06,30,02,53,14.70
2016,06,30,02,54,14.70
2016,06,30,02,55,14.70
2016,06,30,02,56,14.70
2016,06,30,02,57,14.60
2016,06,30,02,58,14.60
2016,06,30,02,59,14.60
2016,06,30,03,00,14.60
2016,06,30,03,01,14.60
2016,06,30,03,02,14.50
2016,06,30,03,03,14.60
2016,06,30,03,04,14.50
2016,06,30,03,05,14.50
2016,06,30,03,06,14.50
2016,06,30,03,07,14.50
2016,06,30,03,08,14.50
2016,06,30,03,09,14.50
2016,06,30,03,10,14.50
2016,06,30,03,11,14.50
2016,06,30,03,12,14.50
2016,06,30,03,13,14.40
2016,06,30,03,14,14.40
2016,06,30,03,15,14.40
2016,06,30,03,16,14.40
2016,06,30,03,17,14.40
2016,06,30,03,18,14.40
2016,06,30,03,19,14.30
2016,06,30,03,20,14.30
2016,06,30,03,21,14.30
2016,06,30,03,22,14.30
2016,06,30,03,23,14.30
2016,06,30,03,24,14.30
2016,06,30,03,25,14.30
2016,06,30,03,26,14.30
2016,06,30,03,27,14.30
2016,06,30,03,28,14.30
2016,06,30,03,29,14.30
2016,06,30,03,30,14.20
2016,06,30,03,31,14.20
2016,06,30,03,32,14.20
2016,06,30,03,33,14.20
2016,06,30,03,34,14.20
2016,06,30,03,35,14.20
2016,06,30,03,36,14.20
2016,06,30,03,37,14.10
2016,06,30,03,38,14.10
2016,06,30,03,39,14.10
2016,06,30,03,40,14.10
2016,06,30,03,41,14.10
2016,06,30,03,42,14.10
2016,06,30,03,43,14.10
2016,06,30,03,44,14.00
2016,06,30,03,45,14.00
2016,06,30,03,46,14.00
2016,06,30,03,47,14.00
2016,06,30,03,48,14.00
2016,06,30,03,49,14.00
2016,06,30,03,50,14.00
2016,06,30,03,51,13.90
2016,06,30,03,52,13.90
2016,06,30,03,53,13.90
2016,06,30,03,54,13.90
2016,06,30,03,55,13.90
2016,06,30,03,56,13.90
2016,06,30,03,57,13.90
2016,06,30,03,58,13.90
2016,06,30,03,59,13.90
2016,06,30,04,00,13.80
2016,06,30,04,01,13.80
2016,06,30,04,02,13.80
2016,06,30,04,03,13.80
2016,06,30,04,04,13.80
2016,06,30,04,05,13.80
2016,06,30,04,06,13.80
2016,06,30,04,07,13.80
2016,06,30,04,08,13.80
2016,06,30,04,09,13.80
2016,06,30,04,10,13.80
2016,06,30,04,11,13.70
2016,06,30,04,12,13.70
2016,06,30,04,13,13.70
2016,06,30,04,14,13.70
2016,06,30,04,15,13.70
2016,06,30,04,16,13.70
2016,06,30,04,17,13.60
2016,06,30,04,18,13.60
2016,06,30,04,19,13.60
2016,06,30,04,20,13.60
2016,06,30,04,21,13.60
2016,06,30,04,22,13.50
2016,06,30,04,23,13.50
2016,06,30,04,24,13.50
2016,06,30,04,25,13.40
2016,06,30,04,26,13.40
2016,06,30,04,27,13.40
2016,06,30,04,28,13.40
2016,06,30,04,29,13.40
2016,06,30,04,30,13.40
2016,06,30,04,31,13.40
2016,06,30,04,32,13.40
2016,06,30,04,33,13.40
2016,06,30,04,34,13.40
2016,06,30,04,35,13.30
2016,06,30,04,36,13.30
2016,06,30,04,37,13.30
2016,06,30,04,38,13.30
2016,06,30,04,39,13.30
2016,06,30,04,40,13.30
2016,06,30,04,41,13.30
2016,06,30,04,42,13.20
2016,06,30,04,43,13.20
2016,06,30,04,44,13.20
2016,06,30,04,45,13.20
2016,06,30,04,46,13.20
2016,06,30,04,47,13.20
2016,06,30,04,48,13.10
2016,06,30,04,49,13.10
2016,06,30,04,50,13.10
2016,06,30,04,51,13.10
2016,06,30,04,52,13.10
2016,06,30,04,53,13.10
2016,06,30,04,54,13.10
2016,06,30,04,55,13.10
2016,06,30,04,56,13.10
2016,06,30,04,57,13.10
2016,06,30,04,58,13.10
2016,06,30,04,59,13.10
2016,06,30,05,00,13.10
2016,06,30,05,01,13.10
2016,06,30,05,02,13.10
2016,06,30,05,03,13.10
2016,06,30,05,04,13.10
2016,06,30,05,05,13.10
2016,06,30,05,06,13.10
2016,06,30,05,07,13.10
2016,06,30,05,08,13.10
2016,06,30,05,09,13.00
2016,06,30,05,10,13.00
2016,06,30,05,11,13.00
2016,06,30,05,12,13.00
2016,06,30,05,13,13.00
2016,06,30,05,14,13.00
2016,06,30,05,15,13.00
2016,06,30,05,16,13.00
2016,06,30,05,17,13.10
2016,06,30,05,18,13.10
2016,06,30,05,19,13.10
2016,06,30,05,20,13.10
2016,06,30,05,21,13.10
2016,06,30,05,22,13.10
2016,06,30,05,23,13.10
2016,06,30,05,24,13.10
2016,06,30,05,25,13.10
2016,06,30,05,26,13.10
2016,06,30,05,27,13.10
2016,06,30,05,28,13.10
2016,06,30,05,29,13.10
2016,06,30,05,30,13.10
2016,06,30,05,31,13.10
2016,06,30,05,32,13.10
2016,06,30,05,33,13.00
2016,06,30,05,34,13.00
2016,06,30,05,35,13.00
2016,06,30,05,36,13.00
2016,06,30,05,37,12.90
2016,06,30,05,38,12.90
2016,06,30,05,39,12.90
2016,06,30,05,40,12.90
2016,06,30,05,41,12.90
2016,06,30,05,42,12.90
2016,06,30,05,43,12.90
2016,06,30,05,44,12.90
2016,06,30,05,45,12.90
2016,06,30,05,46,12.90
2016,06,30,05,47,12.90
2016,06,30,05,48,12.90
2016,06,30,05,49,12.90
2016,06,30,05,50,12.90
2016,06,30,05,51,12.90
2016,06,30,05,52,12.90
2016,06,30,05,53,12.90
2016,06,30,05,54,12.90
2016,06,30,05,55,13.00
2016,06,30,05,56,13.00
2016,06,30,05,57,13.00
2016,06,30,05,58,13.10
2016,06,30,05,59,13.10
2016,06,30,06,00,13.10
2016,06,30,06,01,13.10
2016,06,30,06,02,13.10
2016,06,30,06,03,13.10
2016,06,30,06,04,13.10
2016,06,30,06,05,13.10
2016,06,30,06,06,13.10
2016,06,30,06,07,13.10
2016,06,30,06,08,13.10
2016,06,30,06,09,13.10
2016,06,30,06,10,13.10
2016,06,30,06,11,13.10
2016,06,30,06,12,13.10
2016,06,30,06,13,13.10
2016,06,30,06,14,13.10
2016,06,30,06,15,13.10
2016,06,30,06,16,13.10
2016,06,30,06,17,13.10
2016,06,30,06,18,13.10
2016,06,30,06,19,13.10
2016,06,30,06,20,13.10
2016,06,30,06,21,13.10
2016,06,30,06,22,13.20
2016,06,30,06,23,13.20
2016,06,30,06,24,13.20
2016,06,30,06,25,13.20
2016,06,30,06,26,13.20
2016,06,30,06,27,13.20
2016,06,30,06,28,13.30
2016,06,30,06,29,13.30
2016,06,30,06,30,13.30
2016,06,30,06,31,13.30
2016,06,30,06,32,13.30
2016,06,30,06,33,13.30
2016,06,30,06,34,13.40
2016,06,30,06,35,13.40
2016,06,30,06,36,13.40
2016,06,30,06,37,13.50
2016,06,30,06,38,13.50
2016,06,30,06,39,13.50
2016,06,30,06,40,13.60
2016,06,30,06,41,13.60
2016,06,30,06,42,13.60
2016,06,30,06,43,13.70
2016,06,30,06,44,13.70
2016,06,30,06,45,13.70
2016,06,30,06,46,13.80
2016,06,30,06,47,13.80
2016,06,30,06,48,13.80
2016,06,30,06,49,13.90
2016,06,30,06,50,13.90
2016,06,30,06,51,13.90
2016,06,30,06,52,14.00
2016,06,30,06,53,14.00
2016,06,30,06,54,14.10
2016,06,30,06,55,14.10
2016,06,30,06,56,14.20
2016,06,30,06,57,14.20
2016,06,30,06,58,14.20
2016,06,30,06,59,14.30
2016,06,30,07,00,14.30
2016,06,30,07,01,14.40
2016,06,30,07,02,14.40
2016,06,30,07,03,14.50
2016,06,30,07,04,14.60
2016,06,30,07,05,14.60
2016,06,30,07,06,14.60
2016,06,30,07,07,14.70
2016,06,30,07,08,14.70
2016,06,30,07,09,14.80
2016,06,30,07,10,14.80
2016,06,30,07,11,14.90
2016,06,30,07,12,14.90
2016,06,30,07,13,14.90
2016,06,30,07,14,15.00
2016,06,30,07,15,15.00
2016,06,30,07,16,15.00
2016,06,30,07,17,15.10
2016,06,30,07,18,15.10
2016,06,30,07,19,15.10
2016,06,30,07,20,15.10
2016,06,30,07,21,15.20
2016,06,30,07,22,15.20
2016,06,30,07,23,15.20
2016,06,30,07,24,15.20
2016,06,30,07,25,15.20
2016,06,30,07,26,15.20
2016,06,30,07,27,15.20
2016,06,30,07,28,15.30
2016,06,30,07,29,15.30
2016,06,30,07,30,15.30
2016,06,30,07,31,15.30
2016,06,30,07,32,15.30
2016,06,30,07,33,15.40
2016,06,30,07,34,15.40
2016,06,30,07,35,15.40
2016,06,30,07,36,15.40
2016,06,30,07,37,15.50
2016,06,30,07,38,15.50
2016,06,30,07,39,15.50
2016,06,30,07,40,15.50
2016,06,30,07,41,15.60
2016,06,30,07,42,15.60
2016,06,30,07,43,15.60
2016,06,30,07,44,15.60
2016,06,30,07,45,15.60
2016,06,30,07,46,15.70
2016,06,30,07,47,15.70
2016,06,30,07,48,15.70
2016,06,30,07,49,15.70
2016,06,30,07,50,15.80
2016,06,30,07,51,15.80
2016,06,30,07,52,15.80
2016,06,30,07,53,15.80
2016,06,30,07,54,15.80
2016,06,30,07,55,15.80
2016,06,30,07,56,15.90
2016,06,30,07,57,15.90
2016,06,30,07,58,15.90
2016,06,30,07,59,15.90
2016,06,30,08,00,15.90
2016,06,30,08,01,15.90
2016,06,30,08,02,16.00
2016,06,30,08,03,16.00
2016,06,30,08,04,16.00
2016,06,30,08,05,16.00
2016,06,30,08,06,16.00
2016,06,30,08,07,16.00
2016,06,30,08,08,16.10
2016,06,30,08,09,16.10
2016,06,30,08,10,16.10
2016,06,30,08,11,16.10
2016,06,30,08,12,16.10
2016,06,30,08,13,16.20
2016,06,30,08,14,16.20
2016,06,30,08,15,16.20
2016,06,30,08,16,16.20
2016,06,30,08,17,16.20
2016,06,30,08,18,16.20
2016,06,30,08,19,16.20
2016,06,30,08,20,16.20
2016,06,30,08,21,16.20
2016,06,30,08,22,16.20
2016,06,30,08,23,16.30
2016,06,30,08,24,16.30
2016,06,30,08,25,16.30
2016,06,30,08,26,16.30
2016,06,30,08,27,16.30
2016,06,30,08,28,16.40
2016,06,30,08,29,16.40
2016,06,30,08,30,16.40
2016,06,30,08,31,16.40
2016,06,30,08,32,16.40
2016,06,30,08,33,16.40
2016,06,30,08,34,16.50
2016,06,30,08,35,16.50
2016,06,30,08,36,16.50
2016,06,30,08,37,16.50
2016,06,30,08,38,16.50
2016,06,30,08,39,16.50
2016,06,30,08,40,16.50
2016,06,30,08,41,16.50
2016,06,30,08,42,16.50
2016,06,30,08,43,16.50
2016,06,30,08,44,16.60
2016,06,30,08,45,16.60
2016,06,30,08,46,16.60
2016,06,30,08,47,16.60
2016,06,30,08,48,16.60
2016,06,30,08,49,16.70
2016,06,30,08,50,16.70
2016,06,30,08,51,16.70
2016,06,30,08,52,16.70
2016,06,30,08,53,16.70
2016,06,30,08,54,16.70
2016,06,30,08,55,16.70
2016,06,30,08,56,16.70
2016,06,30,08,57,16.70
2016,06,30,08,58,16.70
2016,06,30,08,59,16.70
2016,06,30,09,00,16.70
2016,06,30,09,01,16.70
2016,06,30,09,02,16.70
2016,06,30,09,03,16.70
2016,06,30,09,04,16.70
2016,06,30,09,05,16.70
2016,06,30,09,06,16.70
2016,06,30,09,07,16.70
2016,06,30,09,08,16.70
2016,06,30,09,09,16.70
2016,06,30,09,10,16.70
2016,06,30,09,11,16.70
2016,06,30,09,12,16.70
2016,06,30,09,13,16.80
2016,06,30,09,14,16.80
2016,06,30,09,15,16.80
2016,06,30,09,16,16.80
2016,06,30,09,17,16.80
2016,06,30,09,18,16.80
2016,06,30,09,19,16.80
2016,06,30,09,20,16.80
2016,06,30,09,21,16.80
2016,06,30,09,22,16.80
2016,06,30,09,23,16.80
2016,06,30,09,24,16.80
2016,06,30,09,25,16.80
2016,06,30,09,26,16.80
2016,06,30,09,27,16.80
2016,06,30,09,28,16.80
2016,06,30,09,29,16.80
2016,06,30,09,30,16.80
2016,06,30,09,31,16.80
2016,06,30,09,32,16.80
2016,06,30,09,33,16.80
2016,06,30,09,34,16.80
2016,06,30,09,35,16.80
2016,06,30,09,36,16.80
2016,06,30,09,37,16.80
2016,06,30,09,38,16.80
2016,06,30,09,39,16.80
2016,06,30,09,40,16.80
2016,06,30,09,41,16.80
2016,06,30,09,42,16.90
2016,06,30,09,43,16.90
2016,06,30,09,44,16.90
2016,06,30,09,45,16.90
2016,06,30,09,46,16.90
2016,06,30,09,47,16.90
2016,06,30,09,48,17.00
2016,06,30,09,49,17.00
2016,06,30,09,50,17.00
2016,06,30,09,51,17.00
2016,06,30,09,52,17.00
2016,06,30,09,53,17.00
2016,06,30,09,54,17.00
2016,06,30,09,55,17.00
2016,06,30,09,56,17.00
2016,06,30,09,57,17.00
2016,06,30,09,58,17.00
2016,06,30,09,59,17.10
2016,06,30,10,00,17.10
2016,06,30,10,01,17.10
2016,06,30,10,02,17.10
2016,06,30,10,03,17.10
2016,06,30,10,04,17.10
2016,06,30,10,05,17.20
2016,06,30,10,06,17.20
2016,06,30,10,07,17.20
2016,06,30,10,08,17.20
2016,06,30,10,09,17.20
2016,06,30,10,10,17.20
2016,06,30,10,11,17.20
2016,06,30,10,12,17.20
2016,06,30,10,13,17.30
2016,06,30,10,14,17.30
2016,06,30,10,15,17.30
2016,06,30,10,16,17.30
2016,06,30,10,17,17.20
2016,06,30,10,18,17.20
2016,06,30,10,19,17.20
2016,06,30,10,20,17.20
2016,06,30,10,21,17.20
2016,06,30,10,22,17.30
2016,06,30,10,23,17.30
2016,06,30,10,24,17.30
2016,06,30,10,25,17.40
2016,06,30,10,26,17.40
2016,06,30,10,27,17.50
2016,06,30,10,28,17.50
2016,06,30,10,29,17.60
2016,06,30,10,30,17.60
2016,06,30,10,31,17.70
2016,06,30,10,32,17.70
2016,06,30,10,33,17.70
2016,06,30,10,34,17.70
2016,06,30,10,35,17.70
2016,06,30,10,36,17.70
2016,06,30,10,37,17.70
2016,06,30,10,38,17.70
2016,06,30,10,39,17.70
2016,06,30,10,40,17.70
2016,06,30,10,41,17.70
2016,06,30,10,42,17.70
2016,06,30,10,43,17.70
2016,06,30,10,44,17.80
2016,06,30,10,45,17.80
2016,06,30,10,46,17.70
2016,06,30,10,47,17.70
2016,06,30,10,48,17.70
2016,06,30,10,49,17.70
2016,06,30,10,50,17.70
2016,06,30,10,51,17.80
2016,06,30,10,52,17.80
2016,06,30,10,53,17.80
2016,06,30,10,54,17.90
2016,06,30,10,55,17.90
2016,06,30,10,56,18.00
2016,06,30,10,57,18.00
2016,06,30,10,58,18.10
2016,06,30,10,59,18.10
2016,06,30,11,00,18.20
2016,06,30,11,01,18.20
2016,06,30,11,02,18.30
2016,06,30,11,03,18.30
2016,06,30,11,04,18.30
2016,06,30,11,05,18.30
2016,06,30,11,06,18.30
2016,06,30,11,07,18.30
2016,06,30,11,08,18.40
2016,06,30,11,09,18.40
2016,06,30,11,10,18.40
2016,06,30,11,11,18.50
2016,06,30,11,12,18.50
2016,06,30,11,13,18.60
2016,06,30,11,14,18.60
2016,06,30,11,15,18.70
2016,06,30,11,16,18.70
2016,06,30,11,17,18.80
2016,06,30,11,18,18.80
2016,06,30,11,19,18.90
2016,06,30,11,20,18.90
2016,06,30,11,21,18.90
2016,06,30,11,22,19.00
2016,06,30,11,23,19.00
2016,06,30,11,24,19.00
2016,06,30,11,25,19.10
2016,06,30,11,26,19.20
2016,06,30,11,27,19.30
2016,06,30,11,28,19.30
2016,06,30,11,29,19.40
2016,06,30,11,30,19.40
2016,06,30,11,31,19.40
2016,06,30,11,32,19.40
2016,06,30,11,33,19.40
2016,06,30,11,34,19.40
2016,06,30,11,35,19.40
2016,06,30,11,36,19.50
2016,06,30,11,37,19.50
2016,06,30,11,38,19.50
2016,06,30,11,39,19.60
2016,06,30,11,40,19.60
2016,06,30,11,41,19.70
2016,06,30,11,42,19.80
2016,06,30,11,43,19.80
2016,06,30,11,44,19.80
2016,06,30,11,45,19.90
2016,06,30,11,46,20.00
2016,06,30,11,47,20.10
2016,06,30,11,48,20.10
2016,06,30,11,49,20.10
2016,06,30,11,50,20.10
2016,06,30,11,51,20.10
2016,06,30,11,52,20.10
2016,06,30,11,53,20.10
2016,06,30,11,54,20.20
2016,06,30,11,55,20.30
2016,06,30,11,56,20.30
2016,06,30,11,57,20.40
2016,06,30,11,58,20.40
2016,06,30,11,59,20.40
2016,06,30,12,00,20.40
2016,06,30,12,01,20.40
2016,06,30,12,02,20.50
2016,06,30,12,03,20.50
2016,06,30,12,04,20.50
2016,06,30,12,05,20.60
2016,06,30,12,06,20.60
2016,06,30,12,07,20.70
2016,06,30,12,08,20.70
2016,06,30,12,09,20.60
2016,06,30,12,10,20.60
2016,06,30,12,11,20.50
2016,06,30,12,12,20.50
2016,06,30,12,13,20.40
2016,06,30,12,14,20.30
2016,06,30,12,15,20.40
2016,06,30,12,16,20.50
2016,06,30,12,17,20.60
2016,06,30,12,18,20.70
2016,06,30,12,19,20.70
2016,06,30,12,20,20.70
2016,06,30,12,21,20.70
2016,06,30,12,22,20.60
2016,06,30,12,23,20.60
2016,06,30,12,24,20.50
2016,06,30,12,25,20.50
2016,06,30,12,26,20.50
2016,06,30,12,27,20.50
2016,06,30,12,28,20.50
2016,06,30,12,29,20.60
2016,06,30,12,30,20.60
2016,06,30,12,31,20.70
2016,06,30,12,32,20.80
2016,06,30,12,33,20.80
2016,06,30,12,34,20.90
2016,06,30,12,35,20.90
2016,06,30,12,36,21.00
2016,06,30,12,37,20.90
2016,06,30,12,38,20.90
2016,06,30,12,39,20.90
2016,06,30,12,40,20.90
2016,06,30,12,41,20.90
2016,06,30,12,42,20.90
2016,06,30,12,43,21.00
2016,06,30,12,44,21.10
2016,06,30,12,45,21.10
2016,06,30,12,46,21.10
2016,06,30,12,47,21.10
2016,06,30,12,48,21.20
2016,06,30,12,49,21.10
2016,06,30,12,50,21.10
2016,06,30,12,51,21.10
2016,06,30,12,52,21.10
2016,06,30,12,53,21.00
2016,06,30,12,54,21.00
2016,06,30,12,55,20.90
2016,06,30,12,56,20.90
2016,06,30,12,57,20.90
2016,06,30,12,58,20.90
2016,06,30,12,59,20.90
2016,06,30,13,00,20.90
2016,06,30,13,01,20.90
2016,06,30,13,02,20.90
2016,06,30,13,03,20.90
2016,06,30,13,04,20.80
2016,06,30,13,05,20.80
2016,06,30,13,06,20.80
2016,06,30,13,07,20.80
2016,06,30,13,08,20.80
2016,06,30,13,09,20.80
2016,06,30,13,10,20.90
2016,06,30,13,11,20.90
2016,06,30,13,12,21.00
2016,06,30,13,13,21.10
2016,06,30,13,14,21.10
2016,06,30,13,15,21.20
2016,06,30,13,16,21.10
2016,06,30,13,17,21.10
2016,06,30,13,18,21.00
2016,06,30,13,19,21.00
2016,06,30,13,20,21.00
2016,06,30,13,21,21.00
2016,06,30,13,22,21.00
2016,06,30,13,23,21.00
2016,06,30,13,24,21.00
2016,06,30,13,25,21.10
2016,06,30,13,26,21.10
2016,06,30,13,27,21.20
2016,06,30,13,28,21.20
2016,06,30,13,29,21.30
2016,06,30,13,30,21.30
2016,06,30,13,31,21.30
2016,06,30,13,32,21.40
2016,06,30,13,33,21.50
2016,06,30,13,34,21.50
2016,06,30,13,35,21.60
2016,06,30,13,36,21.70
2016,06,30,13,37,21.70
2016,06,30,13,38,21.70
2016,06,30,13,39,21.70
2016,06,30,13,40,21.60
2016,06,30,13,41,21.60
2016,06,30,13,42,21.60
2016,06,30,13,43,21.50
2016,06,30,13,44,21.40
2016,06,30,13,45,21.30
2016,06,30,13,46,21.30
2016,06,30,13,47,21.30
2016,06,30,13,48,21.30
2016,06,30,13,49,21.30
2016,06,30,13,50,21.40
2016,06,30,13,51,21.40
2016,06,30,13,52,21.40
2016,06,30,13,53,21.40
2016,06,30,13,54,21.40
2016,06,30,13,55,21.40
2016,06,30,13,56,21.30
2016,06,30,13,57,21.40
2016,06,30,13,58,21.40
2016,06,30,13,59,21.30
2016,06,30,14,00,21.40
2016,06,30,14,01,21.40
2016,06,30,14,02,21.40
2016,06,30,14,03,21.40
2016,06,30,14,04,21.40
2016,06,30,14,05,21.40
2016,06,30,14,06,21.30
2016,06,30,14,07,21.30
2016,06,30,14,08,21.30
2016,06,30,14,09,21.30
2016,06,30,14,10,21.30
2016,06,30,14,11,21.30
2016,06,30,14,12,21.20
2016,06,30,14,13,21.20
2016,06,30,14,14,21.20
2016,06,30,14,15,21.20
2016,06,30,14,16,21.20
2016,06,30,14,17,21.20
2016,06,30,14,18,21.30
2016,06,30,14,19,21.40
2016,06,30,14,20,21.40
2016,06,30,14,21,21.40
2016,06,30,14,22,21.40
2016,06,30,14,23,21.30
2016,06,30,14,24,21.20
2016,06,30,14,25,21.10
2016,06,30,14,26,21.00
2016,06,30,14,27,20.90
2016,06,30,14,28,20.80
2016,06,30,14,29,20.70
2016,06,30,14,30,20.60
2016,06,30,14,31,20.50
2016,06,30,14,32,20.50
2016,06,30,14,33,20.40
2016,06,30,14,34,20.40
2016,06,30,14,35,20.40
2016,06,30,14,36,20.50
2016,06,30,14,37,20.60
2016,06,30,14,38,20.50
2016,06,30,14,39,20.50
2016,06,30,14,40,20.60
2016,06,30,14,41,20.60
2016,06,30,14,42,20.60
2016,06,30,14,43,20.60
2016,06,30,14,44,20.60
2016,06,30,14,45,20.50
2016,06,30,14,46,20.50
2016,06,30,14,47,20.40
2016,06,30,14,48,20.40
2016,06,30,14,49,20.40
2016,06,30,14,50,20.40
2016,06,30,14,51,20.40
2016,06,30,14,52,20.40
2016,06,30,14,53,20.40
2016,06,30,14,54,20.40
2016,06,30,14,55,20.40
2016,06,30,14,56,20.40
2016,06,30,14,57,20.40
2016,06,30,14,58,20.40
2016,06,30,14,59,20.30
2016,06,30,15,00,20.30
2016,06,30,15,01,20.30
2016,06,30,15,02,20.30
2016,06,30,15,03,20.20
2016,06,30,15,04,20.20
2016,06,30,15,05,20.10
2016,06,30,15,06,20.10
2016,06,30,15,07,20.10
2016,06,30,15,08,20.20
2016,06,30,15,09,20.30
2016,06,30,15,10,20.30
2016,06,30,15,11,20.40
2016,06,30,15,12,20.40
2016,06,30,15,13,20.40
2016,06,30,15,14,20.40
2016,06,30,15,15,20.30
2016,06,30,15,16,20.30
2016,06,30,15,17,20.30
2016,06,30,15,18,20.40
2016,06,30,15,19,20.40
2016,06,30,15,20,20.40
2016,06,30,15,21,20.50
2016,06,30,15,22,20.60
2016,06,30,15,23,20.70
2016,06,30,15,24,20.70
2016,06,30,15,25,20.70
2016,06,30,15,26,20.70
2016,06,30,15,27,20.60
2016,06,30,15,28,20.60
2016,06,30,15,29,20.50
2016,06,30,15,30,20.40
2016,06,30,15,31,20.40
2016,06,30,15,32,20.40
2016,06,30,15,33,20.40
2016,06,30,15,34,20.40
2016,06,30,15,35,20.40
2016,06,30,15,36,20.50
2016,06,30,15,37,20.60
2016,06,30,15,38,20.70
2016,06,30,15,39,20.80
2016,06,30,15,40,20.80
2016,06,30,15,41,20.90
2016,06,30,15,42,20.90
2016,06,30,15,43,20.90
2016,06,30,15,44,20.90
2016,06,30,15,45,20.90
2016,06,30,15,46,20.90
2016,06,30,15,47,20.80
2016,06,30,15,48,20.80
2016,06,30,15,49,20.80
2016,06,30,15,50,20.80
2016,06,30,15,51,20.80
2016,06,30,15,52,20.80
2016,06,30,15,53,20.70
2016,06,30,15,54,20.70
2016,06,30,15,55,20.70
2016,06,30,15,56,20.60
2016,06,30,15,57,20.70
2016,06,30,15,58,20.70
2016,06,30,15,59,20.70
2016,06,30,16,00,20.70
2016,06,30,16,01,20.70
2016,06,30,16,02,20.70
2016,06,30,16,03,20.70
2016,06,30,16,04,20.70
2016,06,30,16,05,20.60
2016,06,30,16,06,20.60
2016,06,30,16,07,20.50
2016,06,30,16,08,20.50
2016,06,30,16,09,20.40
2016,06,30,16,10,20.50
2016,06,30,16,11,20.50
2016,06,30,16,12,20.50
2016,06,30,16,13,20.50
2016,06,30,16,14,20.50
2016,06,30,16,15,20.60
2016,06,30,16,16,20.60
2016,06,30,16,17,20.70
2016,06,30,16,18,20.80
2016,06,30,16,19,20.80
2016,06,30,16,20,20.90
2016,06,30,16,21,20.90
2016,06,30,16,22,20.90
2016,06,30,16,23,21.00
2016,06,30,16,24,21.10
2016,06,30,16,25,21.20
2016,06,30,16,26,21.20
2016,06,30,16,27,21.30
2016,06,30,16,28,21.30
2016,06,30,16,29,21.30
2016,06,30,16,30,21.40
2016,06,30,16,31,21.40
2016,06,30,16,32,21.30
2016,06,30,16,33,21.30
2016,06,30,16,34,21.20
2016,06,30,16,35,21.20
2016,06,30,16,36,21.20
2016,06,30,16,37,21.20
2016,06,30,16,38,21.20
2016,06,30,16,39,21.10
2016,06,30,16,40,21.10
2016,06,30,16,41,21.00
2016,06,30,16,42,21.00
2016,06,30,16,43,20.90
2016,06,30,16,44,20.90
2016,06,30,16,45,20.90
2016,06,30,16,46,20.90
2016,06,30,16,47,20.90
2016,06,30,16,48,21.00
2016,06,30,16,49,21.00
2016,06,30,16,50,21.10
2016,06,30,16,51,21.10
2016,06,30,16,52,21.20
2016,06,30,16,53,21.20
2016,06,30,16,54,21.30
2016,06,30,16,55,21.30
2016,06,30,16,56,21.30
2016,06,30,16,57,21.40
2016,06,30,16,58,21.40
2016,06,30,16,59,21.40
2016,06,30,17,00,21.40
2016,06,30,17,01,21.40
2016,06,30,17,02,21.40
2016,06,30,17,03,21.40
2016,06,30,17,04,21.40
2016,06,30,17,05,21.40
2016,06,30,17,06,21.30
2016,06,30,17,07,21.30
2016,06,30,17,08,21.30
2016,06,30,17,09,21.30
2016,06,30,17,10,21.40
2016,06,30,17,11,21.40
2016,06,30,17,12,21.40
2016,06,30,17,13,21.40
2016,06,30,17,14,21.50
2016,06,30,17,15,21.50
2016,06,30,17,16,21.50
2016,06,30,17,17,21.50
2016,06,30,17,18,21.40
2016,06,30,17,19,21.40